SKYSAT-C8

Last updated on Fri Oct 04 2024 00:02:26 GMT+0000 (Coordinated Universal Time)

1 42990U 17068D 24277.35886871 .00031763 00000+0 10659-2 0 9996 2 42990 97.3818 42.0758 0006445 152.5888 207.5694 15.30796484387080
UTC large
Height (km)
Speed (km/s)
/
Latitude / Longitude
Inclination (degrees)
Orbital Period (minutes)
Azimuth
Elevation
Range (km)
Doppler Factor

Next 0 passes for location: London (51.5072 / 0.1276)

Sorry there are no passes over London.